SHT21B EGJB-EGLL

Flight info

Callsign SHT21B
Flight time 0h 33m
Altitude 19000
Route ORIST L982 ROXOG
Aircraft A319/M-SDE3FGHIRWY/LB1

Departure

Time 2026-04-23 08:03
Airport Guernsey Airport (EGJB)

Arrival

Time 2026-04-23 08:36
Airport London Heathrow Airport (EGLL)
Time Latitude Longitude Altitude Speed Heading
2026-04-23 07:31 49.43255 -2.59688 344 ft 0 kts 178°
2026-04-23 07:56 49.43277 -2.59688 353 ft 4 kts 180°
2026-04-23 07:56 49.43304 -2.59688 347 ft 4 kts 184°
2026-04-23 07:56 49.43331 -2.59683 344 ft 4 kts 193°
2026-04-23 07:56 49.43355 -2.59669 355 ft 4 kts 226°
2026-04-23 07:57 49.43362 -2.59649 350 ft 1 kts 268°
2026-04-23 07:57 49.43362 -2.59645 351 ft 0 kts 268°
2026-04-23 07:59 49.43362 -2.59647 351 ft 1 kts 268°
2026-04-23 07:59 49.43361 -2.59680 345 ft 5 kts 268°
2026-04-23 08:00 49.43353 -2.59756 344 ft 9 kts 254°
2026-04-23 08:00 49.43345 -2.59869 344 ft 12 kts 268°
2026-04-23 08:00 49.43342 -2.59993 344 ft 12 kts 267°
2026-04-23 08:00 49.43337 -2.60153 338 ft 18 kts 267°
2026-04-23 08:01 49.43330 -2.60368 336 ft 22 kts 267°
2026-04-23 08:01 49.43325 -2.60596 330 ft 21 kts 275°
2026-04-23 08:01 49.43352 -2.60821 325 ft 19 kts 279°
2026-04-23 08:01 49.43364 -2.61013 321 ft 14 kts 266°
2026-04-23 08:02 49.43359 -2.61169 317 ft 8 kts 267°
2026-04-23 08:02 49.43377 -2.61281 314 ft 14 kts 308°
2026-04-23 08:02 49.43456 -2.61359 313 ft 14 kts 14°
2026-04-23 08:02 49.43468 -2.61247 315 ft 0 kts 86°
2026-04-23 08:03 49.43468 -2.61228 315 ft 16 kts 86°
2026-04-23 08:03 49.43487 -2.60571 330 ft 106 kts 87°
2026-04-23 08:03 49.43527 -2.59155 695 ft 139 kts 87°
2026-04-23 08:03 49.43555 -2.57710 1630 ft 134 kts 90°
2026-04-23 08:04 49.43583 -2.56280 2201 ft 143 kts 92°
2026-04-23 08:04 49.43623 -2.54598 2534 ft 166 kts 91°
2026-04-23 08:04 49.43696 -2.52735 2903 ft 192 kts 89°
2026-04-23 08:04 49.43839 -2.50606 3611 ft 204 kts 81°
2026-04-23 08:05 49.44639 -2.48725 4033 ft 221 kts 41°
2026-04-23 08:05 49.46093 -2.47854 4036 ft 229 kts 22°
2026-04-23 08:05 49.47647 -2.47304 4033 ft 229 kts 19°
2026-04-23 08:05 49.49259 -2.46775 4291 ft 249 kts 19°
2026-04-23 08:06 49.51026 -2.46168 4859 ft 269 kts 19°
2026-04-23 08:06 49.52904 -2.45506 5795 ft 276 kts 19°
2026-04-23 08:06 49.54761 -2.44835 6789 ft 280 kts 19°
2026-04-23 08:06 49.56672 -2.44130 7739 ft 284 kts 19°
2026-04-23 08:07 49.58614 -2.43405 8680 ft 289 kts 19°
2026-04-23 08:07 49.60584 -2.42660 9634 ft 294 kts 19°
2026-04-23 08:07 49.62588 -2.41896 10536 ft 299 kts 19°
2026-04-23 08:07 49.64618 -2.41118 11375 ft 302 kts 19°
2026-04-23 08:08 49.66672 -2.40332 12252 ft 305 kts 18°
2026-04-23 08:08 49.68718 -2.39427 13102 ft 306 kts 26°
2026-04-23 08:08 49.70575 -2.37864 13905 ft 307 kts 39°
2026-04-23 08:08 49.72183 -2.35555 14146 ft 325 kts 53°
2026-04-23 08:09 49.73656 -2.32809 14582 ft 337 kts 53°
2026-04-23 08:09 49.75178 -2.30004 15239 ft 342 kts 53°
2026-04-23 08:09 49.76725 -2.27179 15931 ft 346 kts 52°
2026-04-23 08:09 49.78289 -2.24341 16681 ft 348 kts 51°
2026-04-23 08:10 49.79868 -2.21480 17422 ft 350 kts 51°
2026-04-23 08:10 49.81449 -2.18603 18167 ft 352 kts 50°
2026-04-23 08:10 49.84658 -2.12745 18977 ft 358 kts 50°
2026-04-23 08:11 49.86267 -2.09793 19207 ft 360 kts 50°
2026-04-23 08:11 49.87882 -2.06825 19311 ft 357 kts 49°
2026-04-23 08:11 49.89469 -2.03913 19332 ft 352 kts 50°
2026-04-23 08:11 49.91052 -2.01007 19335 ft 352 kts 49°
2026-04-23 08:12 49.92625 -1.98114 19343 ft 350 kts 50°
2026-04-23 08:12 49.94199 -1.95215 19345 ft 351 kts 50°
2026-04-23 08:12 49.95773 -1.92316 19352 ft 350 kts 50°
2026-04-23 08:12 49.97342 -1.89419 19353 ft 351 kts 50°
2026-04-23 08:13 49.98929 -1.86535 19352 ft 350 kts 46°
2026-04-23 08:13 50.00769 -1.84072 19352 ft 350 kts 35°
2026-04-23 08:13 50.02892 -1.82201 19354 ft 352 kts 27°
2026-04-23 08:13 50.05074 -1.80488 19367 ft 351 kts 28°
2026-04-23 08:14 50.07250 -1.78768 19370 ft 351 kts 28°
2026-04-23 08:14 50.09422 -1.77046 19373 ft 350 kts 28°
2026-04-23 08:14 50.11588 -1.75313 19369 ft 350 kts 30°
2026-04-23 08:14 50.13579 -1.73164 19368 ft 348 kts 41°
2026-04-23 08:15 50.15434 -1.70746 19378 ft 348 kts 41°
2026-04-23 08:15 50.17293 -1.68329 19378 ft 348 kts 41°
2026-04-23 08:15 50.19154 -1.65917 19374 ft 347 kts 41°
2026-04-23 08:15 50.21013 -1.63506 19372 ft 348 kts 41°
2026-04-23 08:16 50.22874 -1.61089 19379 ft 348 kts 41°
2026-04-23 08:16 50.24733 -1.58680 19376 ft 348 kts 40°
2026-04-23 08:16 50.26732 -1.56543 19375 ft 349 kts 30°
2026-04-23 08:16 50.28974 -1.55072 19377 ft 351 kts 19°
2026-04-23 08:17 50.31309 -1.53946 19378 ft 351 kts 19°
2026-04-23 08:17 50.33641 -1.52815 19383 ft 350 kts 19°
2026-04-23 08:17 50.35968 -1.51679 19377 ft 351 kts 19°
2026-04-23 08:17 50.38297 -1.50533 19377 ft 351 kts 20°
2026-04-23 08:18 50.40621 -1.49387 19377 ft 350 kts 19°
2026-04-23 08:18 50.42952 -1.48238 19374 ft 351 kts 19°
2026-04-23 08:18 50.45279 -1.47091 19383 ft 351 kts 20°
2026-04-23 08:18 50.47612 -1.45936 19382 ft 352 kts 19°
2026-04-23 08:19 50.49944 -1.44780 19386 ft 352 kts 20°
2026-04-23 08:19 50.52275 -1.43621 19392 ft 352 kts 19°
2026-04-23 08:19 50.54544 -1.42220 19388 ft 350 kts 29°
2026-04-23 08:19 50.56683 -1.40399 19391 ft 349 kts 30°
2026-04-23 08:20 50.58818 -1.38568 19393 ft 349 kts 30°
2026-04-23 08:20 50.60951 -1.36741 19405 ft 349 kts 30°
2026-04-23 08:20 50.63079 -1.34919 19418 ft 348 kts 30°
2026-04-23 08:20 50.65204 -1.33098 19410 ft 348 kts 30°
2026-04-23 08:21 50.67328 -1.31270 19411 ft 348 kts 30°
2026-04-23 08:21 50.69453 -1.29436 19417 ft 348 kts 30°
2026-04-23 08:21 50.71574 -1.27598 19425 ft 348 kts 30°
2026-04-23 08:21 50.73699 -1.25756 19420 ft 348 kts 30°
2026-04-23 08:22 50.75823 -1.23919 19215 ft 348 kts 30°
2026-04-23 08:22 50.77921 -1.21991 18625 ft 349 kts 33°
2026-04-23 08:22 50.79962 -1.19949 18129 ft 345 kts 35°
2026-04-23 08:22 50.81948 -1.17869 17678 ft 340 kts 36°
2026-04-23 08:23 50.83900 -1.15795 17228 ft 335 kts 36°
2026-04-23 08:23 50.85830 -1.13752 16781 ft 331 kts 36°
2026-04-23 08:23 50.87715 -1.11777 16348 ft 328 kts 36°
2026-04-23 08:23 50.89613 -1.09801 15920 ft 325 kts 36°
2026-04-23 08:24 50.91573 -1.08043 15493 ft 325 kts 23°
2026-04-23 08:24 50.93756 -1.07077 15012 ft 326 kts 16°
2026-04-23 08:24 50.95996 -1.06252 14528 ft 326 kts 16°
2026-04-23 08:24 50.98182 -1.05463 14040 ft 326 kts 16°
2026-04-23 08:25 51.00422 -1.04651 13501 ft 326 kts 16°
2026-04-23 08:25 51.02628 -1.03858 12981 ft 325 kts 16°
2026-04-23 08:25 51.04835 -1.03061 12470 ft 325 kts 16°
2026-04-23 08:25 51.07030 -1.02264 12034 ft 322 kts 16°
2026-04-23 08:26 51.09202 -1.01485 11661 ft 318 kts 16°
2026-04-23 08:26 51.11349 -1.00710 11292 ft 315 kts 16°
2026-04-23 08:26 51.13459 -0.99949 10916 ft 305 kts 16°
2026-04-23 08:26 51.15469 -0.99237 10572 ft 300 kts 16°
2026-04-23 08:27 51.17518 -0.98497 10199 ft 299 kts 16°
2026-04-23 08:27 51.19543 -0.97766 9802 ft 298 kts 16°
2026-04-23 08:27 51.21561 -0.97050 9412 ft 296 kts 16°
2026-04-23 08:27 51.23573 -0.96333 9026 ft 295 kts 16°
2026-04-23 08:28 51.25575 -0.95626 8644 ft 294 kts 16°
2026-04-23 08:28 51.27567 -0.94929 8265 ft 292 kts 16°
2026-04-23 08:28 51.29548 -0.94228 7879 ft 291 kts 16°
2026-04-23 08:28 51.31519 -0.93531 7544 ft 289 kts 16°
2026-04-23 08:29 51.33477 -0.92836 7168 ft 288 kts 16°
2026-04-23 08:29 51.35423 -0.92148 6805 ft 286 kts 16°
2026-04-23 08:29 51.37363 -0.91465 6411 ft 283 kts 16°
2026-04-23 08:29 51.39266 -0.90803 6033 ft 278 kts 16°
2026-04-23 08:30 51.41133 -0.90159 5651 ft 270 kts 16°
2026-04-23 08:30 51.42933 -0.89549 5325 ft 260 kts 16°
2026-04-23 08:30 51.44672 -0.88958 4991 ft 250 kts 19°
2026-04-23 08:30 51.46136 -0.87747 4734 ft 226 kts 47°
2026-04-23 08:31 51.47062 -0.85901 4626 ft 205 kts 67°
2026-04-23 08:31 51.47511 -0.83789 4427 ft 198 kts 85°
2026-04-23 08:31 51.47564 -0.81620 4192 ft 193 kts 92°
2026-04-23 08:31 51.47579 -0.79474 3945 ft 192 kts 92°
2026-04-23 08:32 51.47594 -0.77344 3690 ft 191 kts 91°
2026-04-23 08:32 51.47608 -0.75222 3435 ft 190 kts 91°
2026-04-23 08:32 51.47621 -0.73112 3179 ft 188 kts 91°
2026-04-23 08:32 51.47634 -0.71036 2929 ft 184 kts 91°
2026-04-23 08:33 51.47646 -0.69007 2685 ft 180 kts 91°
2026-04-23 08:33 51.47657 -0.67019 2440 ft 176 kts 91°
2026-04-23 08:33 51.47668 -0.65104 2213 ft 168 kts 91°
2026-04-23 08:33 51.47678 -0.63244 2023 ft 165 kts 90°
2026-04-23 08:34 51.47688 -0.61483 1764 ft 156 kts 90°
2026-04-23 08:34 51.47696 -0.59791 1557 ft 149 kts 89°
2026-04-23 08:34 51.47704 -0.58134 1357 ft 146 kts 88°
2026-04-23 08:34 51.47712 -0.56515 1157 ft 144 kts 88°
2026-04-23 08:35 51.47721 -0.54804 933 ft 155 kts 88°
2026-04-23 08:35 51.47728 -0.53169 730 ft 142 kts 88°
2026-04-23 08:35 51.47734 -0.51647 517 ft 132 kts 89°
2026-04-23 08:35 51.47741 -0.50201 355 ft 128 kts 89°
2026-04-23 08:36 51.47748 -0.48792 195 ft 125 kts 89°
2026-04-23 08:36 51.47752 -0.47415 86 ft 116 kts 89°
2026-04-23 08:36 51.47758 -0.46371 90 ft 69 kts 89°
2026-04-23 08:36 51.47760 -0.45937 85 ft 22 kts 90°
2026-04-23 08:37 51.47760 -0.45656 85 ft 28 kts 90°
2026-04-23 08:37 51.47755 -0.45538 85 ft 12 kts 107°
2026-04-23 08:37 51.47698 -0.45470 85 ft 7 kts 171°
2026-04-23 08:37 51.47638 -0.45467 86 ft 10 kts 179°
2026-04-23 08:38 51.47595 -0.45555 88 ft 13 kts 269°
2026-04-23 08:38 51.47596 -0.45664 86 ft 7 kts 269°
2026-04-23 08:38 51.47596 -0.45757 90 ft 10 kts 269°
2026-04-23 08:38 51.47596 -0.45889 86 ft 13 kts 270°
2026-04-23 08:39 51.47595 -0.46052 87 ft 16 kts 270°
2026-04-23 08:39 51.47594 -0.46242 86 ft 18 kts 269°
2026-04-23 08:39 51.47593 -0.46453 86 ft 19 kts 270°
2026-04-23 08:39 51.47593 -0.46677 86 ft 21 kts 270°
2026-04-23 08:40 51.47583 -0.46898 86 ft 21 kts 267°
2026-04-23 08:40 51.47582 -0.47151 89 ft 24 kts 270°
2026-04-23 08:40 51.47581 -0.47436 86 ft 27 kts 270°
2026-04-23 08:40 51.47580 -0.47748 86 ft 29 kts 270°
2026-04-23 08:41 51.47580 -0.48041 86 ft 20 kts 269°
2026-04-23 08:41 51.47578 -0.48263 89 ft 17 kts 269°
2026-04-23 08:41 51.47577 -0.48398 86 ft 7 kts 270°
2026-04-23 08:41 51.47549 -0.48470 86 ft 10 kts 200°
2026-04-23 08:42 51.47491 -0.48528 87 ft 12 kts 256°
2026-04-23 08:42 51.47487 -0.48672 86 ft 13 kts 270°
2026-04-23 08:42 51.47487 -0.48709 87 ft 5 kts 270°
2026-04-23 08:42 51.47487 -0.48783 86 ft 8 kts 270°
2026-04-23 08:43 51.47478 -0.48830 89 ft 6 kts 218°
2026-04-23 08:43 51.47441 -0.48829 86 ft 4 kts 179°
2026-04-23 08:43 51.47420 -0.48829 86 ft 1 kts 180°
2026-04-23 08:43 51.47405 -0.48829 86 ft 3 kts 179°
2026-04-23 08:44 51.47403 -0.48829 86 ft 0 kts 179°